www.pogodaiklimat.ru

Погода и климат >> Архив погоды >> Россия >> Краснодарский край >> Приморско-Ахтарск


АРХИВ ПОГОДЫ в Приморско-Ахтарске

Время (UTC), дата Ветер
(напр.,м/с)
 
Видим.   Явления Облачность Т
(С)
Тd
(С)
f
(%)
Тe
(С)
Тes
(С)
Комфортность P
(гПа)
Po
(гПа)
Тmin
(С)
Tmax
(С)
R
(мм)
R24
(мм)
S
(см)
00 11.01 В 1 4000 м дымка ясно -3.1 -4.2 92 -5 -5 по сезону 1026.2 1025.7
03 11.01 В 2 4000 м дымка ясно -3.4 -5.0 89 -8 -8 прохладно 1025.0 1024.5 -3.4
06 11.01 В 3 4000 м дымка 10/0
[Ci]
-3.0 -5.1 85 -8 -8 прохладно 1024.1 1023.6 -3.8
09 11.01 В 4 10 км 8/0
[Ci]
+0.1 -4.3 72 -5 -3 по сезону 1023.0 1022.5
12 11.01 СВ 3 10 км 10/0
[Ci]
+1.8 -3.9 66 -2 -1 по сезону 1020.7 1020.2
15 11.01 В 2 10 км 10/0
[Ac trans Ci]
+0.1 -4.1 73 -3 -3 по сезону 1020.6 1020.1 +2.0
18 11.01 СВ 3 10 км 10/0
[Ac trans Ci]
-0.3 -5.1 70 -5 -5 по сезону 1020.3 1019.8
21 11.01 В 4 10 км 10/0
[Ac trans Ci]
-0.9 -5.1 73 -6 -6 по сезону 1020.0 1019.5
00 12.01 В 4 10 км 10/10 600 м
[Sc]
-1.4 -5.1 76 -7 -7 по сезону 1019.3 1018.8
03 12.01 В 4 10 км 10/10 600 м
[Sc]
-2.0 -5.5 77 -8 -8 прохладно 1019.9 1019.4 -2.0
06 12.01 СВ 4
{10}
10 км ясно -2.2 -5.6 77 -8 -8 прохладно 1021.4 1020.9 -2.3
09 12.01 В 5
{13}
10 км 3/0
[Ci fib]
+0.5 -5.4 65 -5 -3 по сезону 1022.5 1022.0
12 12.01 В 5-11
{12}
10 км 6/0
[Ci fib]
+1.0 -5.8 60 -4 -4 по сезону 1023.6 1023.1
15 12.01 В 4
{11}
10 км 10/10 600 м
[Sc]
-0.4 -6.2 65 -6 -6 прохладно 1026.1 1025.6 +1.3
18 12.01 В 4
{11}
10 км ясно -1.8 -6.8 69 -7 -7 прохладно 1028.3 1027.8
21 12.01 СВ 3 10 км ясно -3.3 -6.9 76 -8 -8 прохладно 1030.1 1029.6
00 13.01 В 3 10 км ясно -3.8 -7.4 76 -9 -9 прохладно 1031.4 1030.9
03 13.01 В 4
{13}
10 км 10/10 600 м
[Sc]
-3.5 -9.6 63 -9 -9 прохладно 1032.1 1031.6 -3.8
06 13.01 В 5-10
{11}
10 км 10/10 600 м
[Sc]
-4.0 -9.7 64 -11 -11 холодно 1033.1 1032.6 -4.1
09 13.01 В 5
{12}
10 км 10/10 600 м
[Sc]
-3.5 -9.3 64 -10 -10 холодно 1033.4 1032.9
12 13.01 В 5-11
{13}
10 км 10/10 600 м
[Sc]
-3.0 -10.0 58 -9 -9 холодно 1032.8 1032.3
15 13.01 В 6-12
{13}
10 км 10/10 600 м
[Sc]
-4.0 -10.4 61 -11 -11 очень
холодно
1033.4 1032.9 -2.1
18 13.01 В 6-14
{14}
10 км 10/10 600 м
[Sc]
-5.6 -11.1 65 -13 -13 очень
холодно
1033.3 1032.8
21 13.01 В 6-13
{14}
10 км 10/10 600 м
[Sc]
-6.0 -11.2 67 -14 -14 очень
холодно
1032.3 1031.7
00 14.01 В 6-12
{13}
10 км 10/10 600 м
[Sc]
-5.5 -10.0 71 -13 -13 очень
холодно
1030.9 1030.4
03 14.01 В 6-13
{14}
10 км 10/10 600 м
[Sc]
-6.0 -10.1 73 -14 -14 очень
холодно
1029.5 1029.0 -6.4
06 14.01 В 6-12
{14}
10 км 10/10 600 м
[Sc]
-5.7 -9.3 76 -13 -13 очень
холодно
1029.2 1028.7
09 14.01 СВ 7-15
{15}
10 км 9/9 600 м
[Cb calv]
-4.6 -8.9 72 -13 -13 очень
холодно
1027.5 1027.0
12 14.01 В 6-12
{16}
10 км 10/3 600 м
[Cu hum Ac As]
-3.0 -8.6 65 -10 -10 холодно 1026.1 1025.6
15 14.01 В 8-15
{15}
10 км слабый снег 10/10 600 м
[Sc]
-3.5 -7.6 73 -12 -12 очень
холодно
1026.5 1025.9 -3.0 0.0
18 14.01 В 7-13
{17}
10 км слабый снег 10/10 600 м
[Sc]
-4.1 -7.5 77 -12 -12 очень
холодно
1026.3 1025.7
21 14.01 В 6-11
{17}
10 км слабый снег 10/0
[As op]
-5.8 -8.9 79 -14 -14 очень
холодно
1026.4 1025.9
00 15.01 В 4
{12}
10 км слабый снег 10/10 600 м
[Sc As op]
-6.6 -8.7 85 -13 -13 очень
холодно
1026.6 1026.0
03 15.01 В 6-10
{10}
10 км {снег} 10/10 600 м
[Sc]
-6.2 -9.5 77 -14 -14 очень
холодно
1025.7 1025.2 -6.7 1 2
06 15.01 В 3
{11}
10 км {снег} 10/10 600 м
[Sc]
-6.3 -9.0 81 -12 -12 холодно 1027.0 1026.4
09 15.01 В 2 4000 м слабый снег 10/10 600 м
[Sc]
-5.1 -7.0 86 -9 -9 холодно 1027.8 1027.3
12 15.01 ЮЗ 1 10 км {снег} 10/10 600 м
[Sc]
-2.5 -5.8 78 -5 -5 по сезону 1028.9 1028.4
15 15.01 Ю 1 10 км 10/10 600 м
[Sc]
-2.3 -5.5 79 -4 -4 по сезону 1029.6 1029.0 -1.6 0.2
18 15.01 Ю 1 10 км 10/10 600 м
[Sc]
-2.6 -5.4 81 -5 -5 по сезону 1030.0 1029.4
21 15.01 ЮВ 1 4000 м дымка 10/10 600 м
[Sc]
-3.3 -5.1 87 -6 -6 по сезону 1030.1 1029.6
00 16.01 В 1 4000 м дымка 10/10 600 м
[Sc]
-3.1 -4.9 87 -5 -5 по сезону 1029.4 1028.9
03 16.01 СВ 1 4000 м слабый ливневой снег 10/10 600 м
[Cb calv]
-2.6 -3.9 91 -5 -5 по сезону 1027.8 1027.3 -4.2 1 4
06 16.01 СЗ 1 4000 м слабый ливневой снег 10/10 600 м
[Cb calv]
-1.9 -3.0 92 -4 -4 по сезону 1026.9 1026.4
09 16.01 В 1 10 км {ливн. осадки} 3/3 600 м
[Sc diur, vesp]
+1.7 -3.3 69 0 +3 по сезону 1026.3 1025.8
12 16.01 В 2 10 км {ливн. осадки} 8/0
[Ac trans]
-1.1 -4.0 81 -5 -4 по сезону 1023.8 1023.3
15 16.01 В 3 4000 м дымка 10/3 600 м
[Sc Ac und]
-0.9 -2.8 87 -6 -6 прохладно 1021.2 1020.7 +1.8 0.4
18 16.01 В 4 10 км 10/10 600 м
[Sc]
0.0 -2.4 84 -5 -5 по сезону 1018.8 1018.3
21 16.01 В 3 10 км 10/10 600 м
[Sc]
-0.2 -4.0 76 -5 -5 по сезону 1015.8 1015.3
00 17.01 ЮВ 2 10 км 10/10 600 м
[Sc]
-1.1 -4.8 76 -5 -5 по сезону 1014.6 1014.1
03 17.01 В 4 4000 м в посл. час ливневой снег 10/10 600 м
[Cb calv]
-1.3 -3.1 88 -7 -7 по сезону 1011.3 1010.8 -1.8 1 4
06 17.01 ЮВ 2 4000 м слабый ливневой дождь [диам. гололёда 2 мм] 10/10 600 м
[Cb calv]
-0.4 -1.6 92 -4 -4 по сезону 1010.7 1010.2
09 17.01 ЮВ 2 4000 м дымка {ливн. осадки} 10/0
[Ac trans Ci fib]
+1.8 -0.1 87 -2 +1 по сезону 1010.6 1010.1
12 17.01 ЮВ 1 4000 м дымка {ливн. осадки} 10/8 600 м
[Sc Ac trans]
+2.0 +0.3 88 0 0 по сезону 1009.8 1009.3
15 17.01 В 2 4000 м дымка 10/8 600 м
[Sc Ac trans Ci fib]
+1.1 -0.1 92 -2 -2 по сезону 1009.4 1008.9 +2.9 2
18 17.01 ЮВ 2 4000 м дымка 10/10 600 м
[Sc]
+1.4 +0.3 92 -2 -2 по сезону 1009.4 1008.9
21 17.01 В 3 4000 м дымка 10/5 600 м
[Sc Ac trans]
+1.0 -0.2 92 -4 -4 по сезону 1008.2 1007.7

 

Местоположение метеостанции Приморско-Ахтарск (Краснодарский край, Россия): широта 46.03 долгота 38.15 высота над уровнем моря 4 м.

В архиве по умолчанию представлена погода в Приморско-Ахтарске за последнюю неделю. Архивные данные за месяц целиком и за предыдущие месяцы, начиная с января 2011 года, Вы можете получить, выбрав интересующий диапазон дат из раскрывающегося списка и нажав кнопку "Ввод!".

Внимание! Время в таблицах - всемирное. Для получения местного времени необходимо прибавить поправку, которая в Приморско-Ахтарске равна 3 ч.

Смотрите также архив погоды в соседних городах и на ближайших метеорологических станциях:

Погода в Каневской (Краснодарский край, Россия) (63 км)
Погода в Тимашевске (Краснодарский край, Россия) (75 км)
Погода в Должанке (Краснодарский край, Россия) (79 км)
Погода в Славянске-на-Кубани (Краснодарский край, Россия) (83 км)
Погода в Ейске (Краснодарский край, Россия) (86 км)
Погода в Староминская (Краснодарский край, Россия) (87 км)
Погода в Темрюке (Краснодарский край, Россия) (99 км)
Погода в Маргаритово (Ростовская область, Россия) (114 км)
Погода в Кореновске (Краснодарский край, Россия) (121 км)
Погода в Мариуполе (Донецкая область, Украина) (122 км)

Пояснения к столбцам:

Ветер - указаны скорость ветра в м/с - средняя за 10 мин, порывы в срок и между сроками (в фигурных скобках) и направление, откуда дует ветер: С - северный, СВ - северо-восточный, В - восточный, ЮВ - юго-восточный, Ю - южный, ЮЗ - юго-западный, З - западный, СЗ - северо-западный.
Видимость - горизонтальная дальность видимости в метрах или километрах. При видимости от 1 до 10 км при отсутствии осадков обычно наблюдается дымка, при ухудшении видимости до 1 км и менее - туман. В сухую погоду видимость может ухудшаться дымом, пылью или мглою.
Явления - указаны атмосферные явления, наблюдавшиеся в срок или в последний час перед сроком; фигурными скобками обозначены явления, наблюдавшиеся между сроками (за 1-3 часа до срока); квадратными скобками обозначены град или гололедные отложения с указанием их диаметра в мм.
Облачность - указаны через наклонную черту общая и нижняя облачность в баллах и высота нижней границы облаков в метрах; квадратными скобками обозначены формы облаков: Ci - перистые, Cs - перисто-слоистые, Cc - перисто-кучевые, Ac - высококучевые, As - высокослоистые, Sc - слоисто-кучевые, Ns - слоисто-дождевые, Cu - кучевые, Cb - кучево-дождевые. Подробнее классификацию облаков см. в Атласе облаков (PDF).
T - Температура воздуха - температура, измеренная на высоте 2 м над землей.
Td - Температура точки росы - температура, при понижении до которой содержащийся в воздухе водяной пар достигнет насыщения.
f - Относительная влажность воздуха - влажноcть воздуха, измеренная на высоте 2 м над землей.
Te - Эффективная температура - температура, которую ощущает одетый по сезону человек в тени. Характеристика душности погоды. При расчете учитывается влияние влажности воздуха и скорости ветра на теплоощущения человека.
Tes - Эффективная температура на солнце - температура, которую ощущает человек, с поправкой на солнечный нагрев. Характеристика знойности погоды. Зависит от высоты солнца над горизонтом, облачности и скорости ветра. Ночью, в пасмурную погоду, а также при ветре 12 м/с и более поправка равна нулю.
P - Атмосферное давление - приведенное к уровню моря атмосферное давление.
Po - Атмосферное давление - измеренное на уровне метеостанции атмосферное давление.
Tmin - Минимальная температура - минимум температуры воздуха на высоте 2 м над землей.
Tmax - Максимальная температура - максимум температуры воздуха на высоте 2 м над землей.
R - Количество осадков - Количество выпавших осадков за период времени, мм. При наведении курсора мыши на число - период времени, за который выпало указанное количество осадков.
R24 - Количество осадков - Количество выпавших осадков за 24 часа, мм.
S - Снежный покров - Высота снежного покрова, см. При наведении курсора мыши на число - состояние снежного покрова и степень покрытия местности в баллах.